Wind_Speed
43 44 45 46 46 46 47 46 45 45 45 46 46 47 48 49 50 50 51 51 52 52 51 52 53 53 53 52 51 50 51 51 51 51 51 51 51 52 52 52 53 53 54
42 43 44 45 45 45 46 45 44 44 45 45 45 46 46 48 49 49 50 49 51 52 52 52 52 52 53 53 52 51 51 51 51 50 50 50 51 51 52 52 53 54 54
42 42 43 43 44 44 45 45 45 45 45 46 46 46 46 46 47 48 49 49 49 50 51 51 50 51 52 52 52 52 51 50 50 50 50 50 51 52 53 53 54 55 54
41 42 42 43 43 43 44 46 46 46 46 46 46 46 46 46 47 47 48 49 49 49 50 50 50 50 50 50 50 51 52 51 51 50 50 51 51 52 54 54 54 55 54
41 42 42 42 42 43 44 45 45 45 46 46 46 46 47 47 47 48 49 50 49 49 50 50 51 51 51 51 51 51 52 52 52 52 52 52 52 52 53 53 53 54 54
41 42 42 41 42 43 43 43 44 44 45 45 46 45 46 47 47 48 49 50 50 50 50 50 51 52 52 53 52 52 52 52 52 53 53 52 51 52 52 53 53 53 53
41 42 42 42 42 43 44 44 43 43 43 44 45 45 46 47 48 48 49 50 50 50 51 51 51 52 53 53 52 52 52 53 53 53 51 52 52 53 53 53 53 53 52
41 41 42 42 43 44 44 44 43 43 43 43 44 45 46 47 48 48 49 50 50 50 51 52 52 53 53 52 52 51 51 51 51 51 52 52 52 52 53 53 53 52 52
42 42 42 43 43 44 44 44 44 44 44 44 45 45 46 47 49 49 50 50 50 50 51 52 53 53 53 52 52 51 50 50 50 50 51 51 52 52 52 52 52 52 51
43 43 43 43 43 43 44 45 45 45 45 45 46 46 47 48 49 50 50 50 50 50 51 52 53 53 53 53 52 51 50 50 50 50 51 52 52 52 52 52 52 53 52
41 42 43 43 44 44 44 45 45 46 47 47 47 48 48 48 49 50 50 50 50 50 51 52 53 53 54 54 53 52 52 52 52 52 52 52 53 53 53 53 54 53 53
41 42 42 43 44 45 45 45 46 47 47 47 48 48 49 49 49 49 49 49 50 50 51 52 52 52 53 54 54 54 54 54 54 54 54 53 54 53 53 54 54 53 53
41 42 42 43 43 44 44 45 46 47 47 48 48 48 48 48 48 47 48 48 49 50 50 50 51 51 52 53 53 54 54 55 56 55 55 54 53 53 53 53 53 53 53
41 41 41 42 42 42 43 44 45 46 46 47 47 47 47 47 47 47 47 48 48 49 49 49 49 50 51 52 54 54 55 55 56 56 55 55 54 53 53 52 52 52 53
39 40 40 41 41 42 42 43 44 44 44 44 45 46 46 47 47 47 47 48 48 48 48 48 49 49 50 51 52 53 54 54 55 55 55 55 55 54 53 52 52 52 52
40 39 39 40 40 41 41 42 42 42 43 44 44 44 44 45 45 45 46 46 46 47 47 47 48 48 49 50 51 51 52 53 53 53 54 54 54 53 52 51 51 50 50
40 39 39 39 40 40 41 41 41 42 42 43 43 43 42 42 43 43 44 44 45 45 46 46 47 47 48 49 49 50 50 51 51 51 51 50 50 50 50 50 49 49 49
39 39 39 39 39 39 40 40 41 41 41 42 42 42 42 41 41 41 42 42 43 43 43 44 45 46 46 47 47 47 47 47 48 48 48 48 47 47 48 48 48 48 47
38 38 39 39 39 39 39 39 39 39 39 40 40 40 40 40 40 41 41 42 42 42 42 42 42 42 43 43 44 44 44 45 45 45 45 46 45 45 45 46 46 46 46
37 37 37 37 38 38 38 38 38 38 37 37 38 38 38 38 39 39 40 41 41 40 40 40 40 40 40 41 41 42 42 43 43 43 43 43 44 44 44 44 44 44 44
35 35 36 36 36 36 36 36 36 35 35 35 36 36 36 37 37 38 38 39 38 38 38 38 38 38 38 38 38 39 40 40 41 41 41 41 42 42 42 42 42 43 43
33 34 34 34 33 33 33 33 33 33 33 34 34 35 35 36 36 36 36 36 36 35 35 35 35 36 36 36 37 37 37 38 38 39 39 40 40 40 41 41 41 41 42
32 32 32 32 32 33 33 32 32 32 32 32 33 34 34 35 35 35 35 35 34 34 34 34 34 34 35 35 35 35 36 36 36 37 37 37 38 39 39 39 39 39 40
30 30 31 31 31 31 31 31 31 32 32 32 33 33 33 33 33 34 34 33 33 33 33 33 33 34 34 34 34 34 34 34 34 35 35 35 35 36 36 36 37 37 37
30 31 30 30 30 30 29 30 30 31 31 32 32 32 32 32 32 32 32 31 31 31 32 32 32 32 32 32 32 32 32 32 32 32 32 32 32 33 33 34 34 34 34
30 30 30 29 29 29 29 29 29 30 30 30 30 31 30 30 30 30 30 30 30 30 30 30 30 30 30 30 30 30 30 30 30 30 30 30 30 30 31 31 32 32 32
Wind_Direction
268 267 266 266 265 265 264 264 263 262 262 261 261 261 259 258 258 258 259 260 259 259 260 259 259 260 260 261 262 264 264 264 265 265 266 266 267 267 268 269 269 269 269
269 268 267 266 265 264 264 264 263 263 263 261 261 261 261 259 259 259 259 260 260 260 260 261 261 261 261 262 262 263 264 265 266 266 266 267 268 268 269 270 270 269 270
268 268 267 267 266 265 264 264 264 264 264 263 263 262 262 261 261 260 259 260 262 262 261 262 262 262 262 262 263 263 264 265 266 266 266 266 267 268 270 271 270 270 271
267 267 267 266 267 266 265 265 265 265 265 264 265 264 264 263 263 262 261 261 262 261 261 261 262 262 262 262 262 263 263 265 266 267 267 268 269 269 270 270 270 270 270
267 267 267 267 267 267 267 267 266 265 265 265 265 265 264 264 264 264 263 262 262 261 260 261 262 262 262 261 262 263 264 265 266 267 268 269 269 269 269 269 269 270 270
268 268 267 268 268 268 268 267 267 267 266 265 265 266 266 265 266 266 266 265 263 261 261 261 262 262 263 263 264 264 265 266 266 268 269 268 268 269 269 270 269 269 269
270 269 268 267 267 267 268 268 267 267 267 267 267 267 267 268 268 268 268 266 264 263 262 262 263 263 264 264 264 265 266 266 267 268 268 269 269 269 270 270 270 271 271
273 271 270 268 267 267 268 268 267 267 267 267 267 267 268 269 269 269 268 267 265 264 263 263 263 264 265 264 264 265 267 267 267 268 268 269 269 270 271 271 271 272 272
273 273 271 270 268 268 267 268 268 268 267 267 267 268 268 268 269 269 269 268 267 266 264 264 263 263 264 264 265 265 266 267 267 268 269 268 269 270 270 270 270 271 272
274 273 272 270 269 269 268 268 268 268 268 268 268 269 269 270 270 270 269 268 267 267 266 265 264 264 263 264 265 265 265 266 268 268 269 269 269 269 270 270 271 271 272
275 274 273 271 270 269 270 270 270 269 269 269 269 270 271 271 270 269 269 268 268 267 266 266 265 265 265 264 264 264 265 266 267 268 268 269 269 269 269 270 270 271 271
276 274 273 272 271 270 270 269 270 270 270 270 271 271 272 271 271 270 269 268 268 267 267 267 266 265 265 265 264 265 265 266 267 267 268 268 269 269 269 269 270 270 270
276 275 274 273 272 271 270 270 270 270 270 271 271 271 271 271 270 269 268 268 268 268 268 267 266 266 266 266 265 265 266 267 267 267 267 267 268 268 268 268 268 269 270
277 276 274 273 272 272 272 271 271 271 271 271 272 272 271 270 269 269 269 269 269 268 267 267 267 267 268 267 267 267 267 268 268 267 267 267 267 267 267 268 268 268 269
278 277 275 274 273 273 273 272 272 272 272 272 272 271 271 271 271 270 271 270 270 269 268 268 268 268 268 269 268 268 268 268 268 267 267 267 267 267 267 267 268 269 269
278 277 275 275 274 274 273 273 273 272 271 272 272 272 272 272 272 272 272 271 271 270 269 269 269 269 269 269 269 269 268 268 268 268 268 268 267 267 266 266 267 268 268
279 277 275 275 275 274 274 274 273 272 272 272 272 272 272 273 273 273 273 272 272 272 271 271 271 271 270 270 270 270 269 268 268 268 268 267 267 267 266 266 266 267 267
279 277 276 276 275 275 275 274 273 273 272 271 271 272 272 273 274 273 273 273 274 273 273 272 272 272 271 271 271 270 270 269 268 268 267 268 268 267 267 266 266 266 267
280 279 277 276 276 276 275 275 274 273 272 271 271 271 272 273 273 274 275 275 275 275 274 274 272 272 272 272 271 271 270 269 268 268 267 268 268 268 267 267 266 266 266
281 279 278 277 276 276 275 275 274 273 272 271 271 271 272 273 274 274 275 276 275 275 274 273 272 273 272 272 272 271 270 269 269 268 268 267 267 267 267 266 266 266 267
282 280 279 278 278 277 276 276 275 273 272 271 271 271 272 273 275 276 276 276 276 275 274 273 273 273 273 273 273 272 271 270 270 269 268 267 267 267 266 266 266 266 267
283 282 280 279 279 278 278 277 276 275 273 272 271 272 273 274 276 277 277 276 276 275 274 273 273 273 273 274 274 274 273 272 271 269 268 267 267 266 266 266 266 266 267
285 284 282 281 280 279 278 277 276 275 275 274 274 274 275 275 276 277 276 275 275 274 273 273 274 273 274 275 275 275 274 273 272 270 268 267 267 267 266 267 267 268 268
288 287 285 283 281 280 278 277 276 275 275 275 276 276 276 277 278 277 276 276 275 274 274 274 274 275 275 275 275 275 274 274 273 271 269 268 267 267 267 267 267 268 268
289 288 286 284 282 280 279 279 278 278 277 277 277 277 278 278 279 278 277 276 275 275 275 275 275 276 275 275 275 275 275 275 274 273 271 269 268 268 268 267 267 267 267
291 289 287 285 282 280 280 280 280 279 279 278 278 278 278 279 279 278 277 276 275 275 275 275 276 276 275 275 274 275 275 275 274 273 272 271 270 270 269 268 267 266 265
Height
5604 5605 5605 5606 5606 5607 5607 5608 5609 5610 5611 5612 5613 5615 5616 5617 5619 5621 5623 5624 5626 5628 5630 5632 5634 5635 5637 5638 5639 5641 5642 5643 5645 5646 5646 5646 5646 5646 5646 5646 5646 5647 5647
5592 5592 5592 5593 5593 5594 5594 5595 5596 5598 5598 5600 5600 5601 5602 5604 5606 5607 5609 5610 5612 5614 5616 5618 5619 5621 5622 5624 5625 5627 5628 5629 5630 5631 5632 5632 5632 5632 5633 5633 5632 5632 5632
5579 5580 5580 5580 5581 5581 5582 5583 5584 5585 5586 5587 5587 5588 5589 5591 5592 5594 5595 5597 5599 5601 5602 5604 5605 5607 5608 5610 5611 5612 5614 5615 5616 5617 5617 5618 5618 5618 5618 5618 5618 5617 5617
5568 5568 5568 5568 5569 5570 5570 5570 5571 5572 5573 5574 5575 5576 5577 5578 5579 5580 5582 5583 5585 5587 5588 5589 5591 5592 5594 5595 5597 5598 5599 5600 5601 5602 5603 5603 5603 5602 5603 5603 5603 5602 5602
5556 5557 5557 5557 5557 5558 5558 5558 5559 5559 5560 5561 5562 5562 5563 5564 5565 5567 5568 5569 5571 5573 5574 5575 5576 5578 5579 5581 5582 5583 5584 5585 5586 5587 5588 5588 5588 5588 5588 5588 5588 5587 5587
5544 5545 5545 5545 5545 5545 5546 5546 5546 5547 5547 5548 5549 5550 5550 5551 5552 5553 5554 5555 5557 5558 5560 5561 5562 5564 5565 5566 5567 5568 5569 5570 5571 5571 5573 5573 5573 5573 5573 5572 5572 5572 5573
5533 5532 5533 5533 5533 5533 5533 5533 5534 5534 5534 5535 5536 5537 5537 5538 5538 5539 5539 5541 5542 5544 5545 5547 5548 5549 5550 5551 5552 5553 5554 5555 5556 5557 5557 5557 5558 5558 5558 5558 5556 5556 5556
5521 5520 5520 5520 5520 5520 5520 5521 5521 5521 5522 5522 5523 5524 5524 5524 5524 5525 5525 5527 5528 5529 5530 5532 5533 5534 5535 5536 5537 5538 5539 5540 5541 5542 5543 5542 5541 5541 5541 5541 5540 5541 5541
5508 5508 5508 5507 5507 5508 5507 5507 5507 5508 5509 5509 5510 5510 5510 5511 5510 5510 5511 5512 5513 5514 5515 5516 5517 5519 5520 5521 5523 5524 5525 5525 5524 5525 5526 5526 5525 5525 5525 5525 5525 5525 5526
5496 5495 5494 5494 5494 5494 5494 5494 5494 5495 5495 5495 5496 5496 5496 5496 5496 5496 5496 5497 5499 5499 5500 5501 5503 5503 5504 5504 5506 5508 5509 5510 5509 5510 5510 5510 5510 5510 5509 5509 5509 5509 5510
5482 5482 5481 5481 5481 5481 5481 5481 5481 5481 5481 5482 5482 5482 5482 5482 5481 5481 5481 5482 5483 5484 5485 5486 5486 5487 5488 5489 5490 5492 5493 5494 5494 5494 5495 5494 5494 5494 5493 5493 5493 5493 5494
5469 5468 5468 5467 5467 5467 5467 5467 5467 5467 5467 5467 5467 5467 5467 5467 5466 5466 5466 5467 5467 5468 5470 5470 5471 5471 5472 5474 5475 5476 5476 5477 5478 5478 5478 5479 5478 5478 5477 5477 5477 5477 5478
5456 5455 5454 5453 5453 5452 5452 5452 5452 5452 5452 5453 5453 5453 5452 5452 5452 5451 5451 5451 5452 5453 5454 5455 5455 5456 5457 5458 5459 5459 5460 5460 5461 5461 5462 5462 5462 5461 5461 5461 5461 5461 5462
5443 5441 5440 5440 5439 5439 5438 5438 5438 5438 5438 5438 5438 5438 5437 5437 5437 5437 5437 5437 5437 5438 5438 5439 5439 5440 5441 5442 5442 5443 5443 5443 5443 5444 5444 5445 5444 5444 5445 5445 5445 5446 5447
5430 5429 5427 5426 5426 5425 5425 5424 5424 5424 5423 5424 5423 5423 5423 5423 5422 5422 5422 5422 5422 5423 5423 5423 5424 5425 5425 5425 5426 5426 5426 5426 5426 5427 5427 5427 5427 5428 5428 5429 5429 5429 5430
5417 5416 5415 5414 5413 5412 5412 5411 5410 5410 5410 5409 5409 5409 5409 5408 5408 5407 5407 5407 5407 5407 5408 5408 5408 5409 5409 5409 5409 5409 5409 5409 5409 5410 5410 5410 5411 5411 5412 5413 5413 5414 5415
5404 5402 5401 5401 5400 5399 5399 5398 5397 5397 5396 5396 5395 5395 5395 5394 5394 5393 5393 5393 5392 5392 5392 5392 5392 5393 5393 5393 5393 5393 5393 5392 5393 5393 5393 5394 5394 5395 5396 5397 5397 5398 5399
5390 5389 5388 5387 5387 5386 5385 5385 5384 5384 5383 5383 5382 5382 5381 5381 5380 5380 5379 5379 5378 5378 5377 5377 5377 5377 5377 5377 5376 5376 5376 5376 5377 5377 5378 5378 5379 5379 5380 5381 5382 5383 5385
5377 5376 5375 5374 5374 5373 5372 5372 5371 5370 5370 5369 5369 5369 5368 5368 5367 5366 5366 5365 5365 5364 5363 5362 5362 5362 5361 5361 5361 5361 5361 5361 5362 5362 5362 5363 5364 5365 5366 5367 5368 5369 5370
5365 5364 5363 5362 5361 5360 5360 5359 5358 5358 5357 5357 5356 5356 5356 5355 5355 5354 5353 5352 5351 5350 5349 5349 5348 5348 5348 5347 5347 5347 5347 5347 5347 5348 5348 5349 5350 5350 5351 5352 5354 5355 5356
5353 5352 5351 5350 5349 5348 5347 5346 5346 5345 5345 5344 5344 5344 5343 5343 5342 5341 5340 5339 5338 5337 5336 5336 5335 5335 5335 5334 5334 5334 5334 5334 5334 5334 5335 5335 5336 5337 5338 5339 5340 5341 5342
5342 5341 5340 5339 5338 5337 5336 5335 5334 5334 5333 5333 5332 5332 5331 5330 5330 5329 5328 5326 5325 5325 5324 5324 5323 5323 5322 5322 5322 5321 5321 5321 5321 5321 5321 5322 5323 5323 5324 5325 5327 5328 5328
5332 5331 5329 5328 5327 5326 5325 5324 5323 5322 5322 5321 5321 5320 5319 5318 5318 5316 5315 5315 5314 5313 5312 5312 5311 5311 5310 5310 5310 5309 5309 5309 5309 5309 5309 5309 5310 5311 5312 5313 5313 5314 5315
5323 5321 5319 5318 5316 5315 5314 5313 5312 5312 5311 5311 5310 5309 5308 5307 5306 5305 5304 5303 5302 5302 5301 5301 5300 5300 5299 5299 5298 5298 5298 5297 5297 5297 5297 5298 5298 5299 5299 5300 5301 5302 5303
5313 5311 5309 5308 5306 5305 5304 5303 5302 5301 5301 5300 5299 5298 5297 5296 5295 5294 5293 5292 5291 5291 5290 5290 5289 5289 5288 5288 5287 5287 5287 5286 5286 5286 5286 5287 5287 5288 5288 5289 5290 5290 5291
5303 5301 5300 5298 5297 5295 5294 5293 5292 5291 5290 5289 5288 5287 5286 5285 5284 5283 5282 5281 5281 5280 5280 5279 5279 5278 5278 5277 5277 5277 5276 5276 5276 5276 5276 5277 5277 5278 5278 5278 5279 5280 5281